User: anonymous   Login
Location: Blue Mountain Vista Observatory
(40.6992°N, 75.9422°W)
Time: 08:09:28
(UTC-04:00)
Language:

CZ-4C R/B - Orbit

View from above orbital plane
View from above orbital plane
View from above satellite
View from above satellite

Ground track
Ground track

The orbit data is extracted from the following two-line orbital elements,

1 36416U 10009D   15242.46834901 -.00000067  00000-0  23292-4 0  9995
2 36416 063.4438 224.0556 0322514 358.4516 001.5494 13.69473107274437
Epoch (UTC): 30 August 2015 11:14:25
Eccentricity: 0.0322514
inclination: 63.4438°
perigee height: 763 km
apogee height: 1239 km
right ascension of ascending node: 224.0556°
argument of perigee: 358.4516°
revolutions per day: 13.69473107
mean anomaly at epoch: 1.5494°
orbit number at epoch: 27443

The dashed part of the orbit path shows where the satellite is in the earth's shadow,  

DLR